This demonstration page uses our WeatherBlox Daily Observations layout. Learn more.

Left ArrowRight Arrow

30.21309, -93.2044

Hourly Observations for August 4, 2020

Temp ( °F °C ) Dew Point ( °F °C ) Humidity (%) Winds ( mph kmh ) Pressure ( in mb ) Visibility ( mi km ) Precip ( " mm )
12:15 am 00:15 Mostly Cloudy 82 27.7 76 24.7 84 84 SW 6 9 29.97 1015 10 16 0.00 0.00
12:35 am 00:35 Mostly Cloudy 82 27.6 76 24.7 84 84 WSW 6 9 29.97 1015 10 16 0.00 0.00
12:55 am 00:55 Mostly Cloudy 82 28 76 24.6 82 82 WSW 7 11 29.96 1015 10 16 0.00 0.00
1:15 am 01:15 Cloudy 83 28.1 76 24.5 81 81 WSW 8 13 29.96 1015 10 16 0.00 0.00
1:35 am 01:35 Mostly Cloudy 83 28.1 76 24.6 81 81 WSW 5 7 29.96 1015 10 16 0.00 0.00
1:55 am 01:55 Cloudy 82 27.9 76 24.6 82 82 WSW 6 9 29.96 1015 10 16 0.00 0.00
2:15 am 02:15 Partly Cloudy 82 27.9 76 24.6 82 82 W 6 9 29.96 1015 10 16 0.00 0.00
2:35 am 02:35 Clear 82 27.7 76 24.6 83 83 W 6 9 29.96 1015 10 16 0.00 0.00
2:55 am 02:55 Partly Cloudy 82 27.7 76 24.5 83 83 W 6 9 29.95 1014 10 16 0.00 0.00
3:15 am 03:15 Partly Cloudy 79 26.3 75 23.9 87 87 N 9 15 29.96 1015 10 16 0.00 0.00
3:35 am 03:35 Clear 78 25.6 75 23.8 90 90 NNW 3 6 29.96 1015 10 16 0.00 0.00
3:55 am 03:55 Clear 78 25.4 75 23.7 90 90 NNW 5 7 29.97 1015 10 16 0.00 0.00
4:15 am 04:15 Clear 78 25.4 74 23.6 90 90 WNW 3 6 29.97 1015 10 16 0.00 0.00
4:35 am 04:35 Partly Cloudy 78 25.7 74 23.6 88 88 NW 5 7 29.97 1015 10 16 0.00 0.00
4:55 am 04:55 Partly Cloudy 77 25.2 74 23.5 90 90 NNW 3 6 29.97 1015 10 16 0.00 0.00
5:15 am 05:15 Clear 78 25.3 74 23.6 90 90 WNW 3 6 29.98 1015 10 16 0.00 0.00
5:35 am 05:35 Partly Cloudy 78 25.6 75 23.7 89 89 WNW 5 7 29.98 1015 10 16 0.00 0.00
6:00 am 06:00 Partly Cloudy 79 26 75 24 89 89 WNW 5 7 29.99 1016 10 16 0.00 0.00
6:53 am 06:53 Mostly Sunny 75 24 73 23 94 94 Calm 30.00 1016 10 16 0.00 0.00
7:45 am 07:45 Mostly Sunny 79 26 75 24 89 89 Calm 30.00 1016 10 16 0.00 0.00
8:52 am 08:52 Mostly Sunny 82 28 66 19 58 58 Calm 30.01 1016 10 16 0.00 0.00
9:55 am 09:55 Mostly Sunny 84 29 66 19 55 55 Calm 30.02 1017 10 16 0.00 0.00
10:50 am 10:50 Mostly Sunny 88 31 64 18 46 46 Calm 30.02 1017 10 16 0.00 0.00
11:55 am 11:55 Mostly Sunny 90 32 70 21 52 52 Calm 30.01 1016 10 16 0.00 0.00
12:47 pm 12:47 Mostly Sunny 91 33 73 23 56 56 W 6 9 30.00 1016 10 16 0.00 0.00
1:55 pm 13:55 Mostly Cloudy 91 33 73 23 56 56 W 10 17 29.98 1015 10 16 0.00 0.00
2:55 pm 14:55 Mostly Cloudy 93 34 73 23 53 53 SW 9 15 29.97 1015 10 16 0.00 0.00
3:35 pm 15:35 Mostly Cloudy 93 34 73 23 53 53 NW 6 9 29.95 1014 10 16 0.00 0.00
3:50 pm 15:50 Mostly Cloudy with Nearby Thunderstorms 93 34 72 22 49 49 NNW 6 9 29.93 1014 10 16 0.00 0.00
4:50 pm 16:50 Mostly Cloudy with Nearby Thunderstorms 84 29 72 22 66 66 W 9 15 29.94 1014 10 16 0.00 0.00
5:55 pm 17:55 Partly Cloudy 79 26 70 21 74 74 SW 9 15 29.96 1015 10 16 0.00 0.00
6:50 pm 18:50 Mostly Sunny 82 28 72 22 70 70 SW 7 11 29.96 1015 10 16 0.00 0.00
7:55 pm 19:55 Mostly Sunny 81 27 72 22 74 74 WSW 5 7 29.96 1015 10 16 0.00 0.00
8:50 pm 20:50 Mostly Clear 81 27 73 23 79 79 Calm 29.97 1015 10 16 0.00 0.00
9:50 pm 21:50 Mostly Clear 79 26 73 23 84 84 Calm 29.97 1015 10 16 0.00 0.00
10:15 pm 22:15 Clear 78 25.4 73 22.8 86 86 NW 5 7 29.98 1015 10 16 0.00 0.00
10:35 pm 22:35 Clear 78 25.8 73 22.8 84 84 Calm 29.98 1015 10 16 0.00 0.00
10:55 pm 22:55 Clear 77 25.2 74 23.1 88 88 NW 3 6 29.98 1015 10 16 0.00 0.00
11:15 pm 23:15 Clear 77 24.9 74 23.1 90 90 N 3 6 29.98 1015 10 16 0.00 0.00
11:35 pm 23:35 Clear 76 24.5 73 23 91 91 Calm 29.98 1015 10 16 0.00 0.00
11:55 pm 23:55 Clear 75 24.1 73 23 94 94 SSE 3 6 29.99 1016 10 16 0.00 0.00

Powered by AerisWeather